Simultaneous Nadir Overpasses (SNOs) Predictions

Prediction of SNOs between LANDSAT-8 and NOAA-19 Satellite Orbit:

Table of predicted SNOs for the next 14.0 days since TLE Epoch: 3/23/2017
Index Date (LANDSAT-8) Time (LANDSAT-8) Lat,Lon (LANDSAT-8) SZA (LANDSAT-8 ) Date (NOAA-19) Time (NOAA-19) Lat,Lon (NOAA-19) SZA (NOAA-19 ) Distance(km) Time Diff (sec)
1 03/25/2017 12:54:36 75.90, -5.90 73.90 03/25/2017 12:54:11 75.91, -5.82 73.90 2.27 25
2 03/25/2017 13:44:04 -75.87, 161.65 106.15 03/25/2017 13:45:05 -75.86, 161.61 106.16 1.41 61
3 03/27/2017 18:28:19 -75.91, 90.70 106.97 03/27/2017 18:27:58 -75.94, 90.70 106.94 2.45 21
4 03/27/2017 19:17:48 75.74,-102.16 72.84 03/27/2017 19:18:59 75.69,-101.22 72.83 26.44 71
5 03/30/2017 00:02:00 75.93,-172.69 72.19 03/30/2017 00:01:55 75.92,-172.67 72.18 1.03 5
6 03/30/2017 00:51:34 -75.61, -6.00 108.17 03/30/2017 00:52:43 -75.58, -4.21 108.14 49.61 69
7 04/01/2017 04:46:04 76.49, 118.04 71.96 04/01/2017 04:45:00 76.54, 114.32 71.91 96.71 64
8 04/01/2017 05:35:43 -75.94, -76.10 108.67 04/01/2017 05:35:42 -75.92, -76.07 108.67 1.50 1
9 04/03/2017 10:19:52 -76.26,-146.17 109.15 04/03/2017 10:18:43 -76.36,-148.33 109.12 58.04 69
10 04/03/2017 11:09:24 75.94, 20.47 70.49 04/03/2017 11:09:39 75.95, 20.40 70.51 2.77 15
11 04/05/2017 15:53:38 76.01, -50.37 69.74 04/05/2017 15:52:31 76.02, -50.48 69.73 2.86 67
12 04/05/2017 16:43:07 -75.94, 117.06 110.35 04/05/2017 16:43:26 -75.93, 117.11 110.36 2.15 19
